Regional Weather Roundup
Issued by NWS

Home | Current Version | Previous Version | Graphics & Text | Print | Product List | Glossary On
Versions: 1 2 3 4 5 6 7 8 9 10 11 12 13 14 15 16 17 18 19 20 21 22 23 24 25 26 27 28 29 30 31 32 33 34 35 36 37 38 39 40 41 42 43 44 45 46 47 48 49 50
687
ASUS43 KMPX 241901
RWRMN
WEATHER ROUNDUP FOR MINNESOTA
NATIONAL WEATHER SERVICE TWIN CITIES/CHANHASSEN MN
200 PM CDT FRI MAR 24 2017


NOTE: "FAIR" INDICATES FEW OR NO CLOUDS BELOW 12,000 FEET WITH NO
SIGNIFICANT WEATHER AND/OR OBSTRUCTIONS TO VISIBILITY. N/A MEANS
CURRENT SKY AND/OR WEATHER CONDITIONS ARE NOT AVAILABLE.

MNZ060>063-068>070-242000-
   Twin Cities Metro

CITY           SKY/WX    TMP DP  RH WIND       PRES   REMARKS
TWIN CITIES    CLOUDY    44  35  70 NE10      30.06R
ST PAUL        CLOUDY    43  37  79 N9        30.07S
CRYSTAL        CLOUDY    44  34  67 NE9       30.04F
BLAINE         CLOUDY    45  39  81 NE9       30.05S
LAKEVILLE      CLOUDY    41  37  87 NE10      30.04R
EDEN PRAIRIE   CLOUDY    45  36  70 NE8       30.04S
SOUTH ST PAUL  CLOUDY    43  37  78 N8        30.05S
LAKE ELMO      CLOUDY    43  37  81 N7        30.06F
$$
MNZ001>005-007-008-013>017-022>024-027-028-242000-
   Northwest Minnesota

CITY           SKY/WX    TMP DP  RH WIND       PRES   REMARKS
BEMIDJI        CLOUDY    39  31  72 NE6       30.15R
HALLOCK        CLOUDY    36  27  69 N8        30.23R
ROSEAU         CLOUDY    36  28  75 NE7       30.20R
WARROAD        CLOUDY    36  27  69 NE6       30.20R
THIEF RVR FALL CLOUDY   N/A N/A N/A N7        30.20R
CROOKSTON      CLOUDY    36  30  80 N12       30.21R
FOSSTON        CLOUDY    37  30  75 N3        30.17S
DETROIT LAKES  MOSUNNY   37  32  81 N12       30.14F
MOORHEAD       CLOUDY    36  30  80 N17       30.18F
PARK RAPIDS    PTSUNNY   41  29  62 N12       30.12R
MAHNOMEN       CLOUDY    37  31  79 N7        30.16S
$$
MNZ006-009>011-018-025>026-242000-
   North Central Minnesota

CITY           SKY/WX    TMP DP  RH WIND       PRES   REMARKS
BAUDETTE       CLOUDY    39  25  57 NE12      30.15R
FLAG ISLAND    CLOUDY    34  23  64 N9        30.19R WCI  26
INTL FALLS     CLOUDY    38  26  62 N9        30.15R
WASKISH        CLOUDY    41  30  65 NW3       30.15R
BIG FORK       CLOUDY    39  30  70 N3        30.14R
LONGVILLE      CLOUDY    39  32  75 N7        30.12R
GRAND RAPIDS   CLOUDY    38  33  82 N7        30.14R
CRANE LAKE     CLOUDY    36  30  80 N3        30.16R
ORR            CLOUDY    37  28  70 CALM      30.11R
COOK           CLOUDY    37  32  81 N3        30.14R
WALKER         CLOUDY    38  31  74 NW7       30.13R
$$
MNZ012-019>021-037-242000-
   Northeast Minnesota

CITY           SKY/WX    TMP DP  RH WIND       PRES   REMARKS
DULUTH         CLOUDY    37  34  89 N8        30.09R
ELY            CLOUDY    36  34  93 CALM      30.12R
HIBBING        CLOUDY    36  33  89 N6        30.12R
EVELETH        CLOUDY    37  34  89 N3        30.13R FOG
DULUTH HARBOR  CLOUDY    37  36  93 CALM      30.13R FOG
TWO HARBORS    CLOUDY    41  36  81 CALM      30.09R
SILVER BAY     CLOUDY    39  36  87 NE5       30.09R
GRAND MARAIS     N/A     37  34  89 CALM      30.12R
G MARAIS ARPRT CLOUDY    34  28  80 N5        30.09R WCI  30
$$
MNZ029>031-032-039>041-046>048-054>057-064-242000-
   West Central Minnesota

CITY           SKY/WX    TMP DP  RH WIND       PRES   REMARKS
FERGUS FALLS   CLOUDY    43  34  70 N17G23    30.15F
WHEATON        CLOUDY    41  34  75 N16G22    30.16R
MORRIS         CLOUDY    41  36  81 N15       30.10R
ALEXANDRIA     CLOUDY    39  34  82 N14       30.10S
ELBOW LAKE     CLOUDY    41  34  77 N13       30.11F
WADENA         CLOUDY    39  32  75 N10G17    30.10F
GLENWOOD       CLOUDY    37  36  93 N10       30.10R
APPLETON       CLOUDY    39  36  87 N13       30.12R
BENSON         CLOUDY    41  34  75 NE10      30.13R
ORTONVILLE     CLOUDY    39  34  81 N18       30.12R
MADISON        CLOUDY    39  39 100 N16       30.12R
WILLMAR        CLOUDY    41  37  87 N12G17    30.12R
$$
MNZ033>034-036-042>043-049>051-058-059-242000-
   Central Minnesota

CITY           SKY/WX    TMP DP  RH WIND       PRES   REMARKS
ST CLOUD       CLOUDY    39  34  82 N12G22    30.08S
SAUK CENTRE    CLOUDY    37  33  87 N12G20    30.09R
PAYNESVILLE      N/A     38  38 100 N10       30.10R
AITKIN         CLOUDY    41  32  70 N8        30.09S
PINE RIVER     CLOUDY    39  32  75 N10G17    30.15R
BRAINERD       CLOUDY    39  32  76 N12       30.10S
STAPLES        CLOUDY    39  32  75 N9        30.10F
LONG PRAIRIE   CLOUDY    36  32  87 N9        30.09F
LITTLE FALLS   CLOUDY    37  32  81 N6        30.09F
LITCHFIELD     CLOUDY    41  37  87 N10       30.10R
BUFFALO        CLOUDY    42  35  76 N9        30.08R
MAPLE LAKE     CLOUDY    42  37  83 N9        30.08R
HUTCHINSON     CLOUDY    43  38  83 N8        30.10R
$$
MNZ037-044-045-052-053-242000-
   East Central Minnesota

CITY           SKY/WX    TMP DP  RH WIND       PRES   REMARKS
PRINCETON      CLOUDY    41  36  81 N15       30.08F
MORA           CLOUDY    36  32  87 N7        30.10R
CAMBRIDGE      CLOUDY    43  34  70 N8        30.06S
RUSH CITY      CLOUDY    41  35  79 N10       30.07S
MOOSE LAKE     CLOUDY    37  32  81 N12       30.08R
HINCKLEY       CLOUDY    37  34  87 N12       30.10R
CLOQUET        CLOUDY    37  34  87 N7        30.10R
MCGREGOR       CLOUDY    37  34  87 N8        30.10F
$$
MNZ071>073-080-081-089-090-097-098-242000-
   Southwest Minnesota

CITY           SKY/WX    TMP DP  RH WIND       PRES   REMARKS
MONTEVIDEO     CLOUDY    39  37  93 NE12      30.13R
GRANITE FALLS  CLOUDY    42  37  81 N13       30.12R
CANBY          CLOUDY    38  37  92 N12G17    30.12S
MARSHALL       CLOUDY    41  37  86 N16       30.08S
REDWOOD FALLS  CLOUDY    44  36  73 N8        30.08S
OLIVIA         CLOUDY    41  36  81 N10       30.11R
PIPESTONE      CLOUDY    39  34  81 NE12      30.07R
WINDOM         CLOUDY    41  37  87 N18       30.05F
WORTHINGTON    CLOUDY    38  36  92 NE16      30.06R
JACKSON        CLOUDY    37  37 100 N15       30.05R
TRACY          CLOUDY    42  39  87 NE17      30.07S
SLAYTON        CLOUDY    39  37  92 N15G21    30.06F
$$
MNZ065>067-074>077-082>085-091>093-242000-
   South Central Minnesota

CITY           SKY/WX    TMP DP  RH WIND       PRES   REMARKS
MANKATO        CLOUDY    41  37  86 N15       30.06R
NEW ULM        CLOUDY    43  37  81 N8        30.07R
ST JAMES       CLOUDY    41  37  87 N15       30.07R
FAIRMONT       CLOUDY    39  37  92 N14       30.06R
GLENCOE        CLOUDY    44  40  86 N8        30.07R
FARIBAULT      CLOUDY    39  39 100 N9        30.05R
OWATONNA       CLOUDY    39  36  87 N13       30.04R FOG
WASECA         CLOUDY    39  36  87 N14       30.04S FOG
ALBERT LEA     DRIZZLE   39  39 100 N12       30.01R
$$
MNZ078>079-086>088-094>096-242000-
   Southeast Minnesota

CITY           SKY/WX    TMP DP  RH WIND       PRES   REMARKS
ROCHESTER      CLOUDY    40  39  97 N12       30.02R
RED WING       DRIZZLE   43  37  81 NE7       30.04R
STANTON        CLOUDY    41  37  87 N14       30.03R
DODGE CENTER   DRIZZLE   37  37 100 N10       30.03R
WINONA         CLOUDY    41  37  87 CALM      30.02R
AUSTIN         MIX PCPN  41  37  87 N10       30.00R
PRESTON        CLOUDY    40  38  93 N8        30.00R FOG
$$
ABBREVIATIONS USED IN REMARKS
   TC - TEMPERATURES IN CELSIUS
  WCI - WIND CHILL INDEX
   HX - HEAT INDEX
  VSB - VISIBILITY
$$




USA.gov is the U.S. government's official web portal to all federal, state and local government web resources and services.